Location: Staunton
(38.1490°N, 79.0720°W)
Time: 14:22:57
(UTC-04:00)

ISS - Pass Details

Date: 23 May 2017
Orbit: 402 x 408 km, 51.6° (Epoch: 29 May)

Event Time Altitude Azimuth Distance (km) Brightness Sun altitude
Rises 03:00:53 0° 319° (NW) 2,328 0.3 -26.0°
Reaches altitude 10° 03:05:01 10° 10° (N) 1,464 -0.1 -25.6°
Maximum altitude 03:05:14 10° 13° (NNE) 1,461 -0.1 -25.6°
Drops below altitude 10° 03:05:26 10° 17° (NNE) 1,463 0.0 -25.6°
Sets 03:09:33 0° 68° (ENE) 2,318 0.8 -25.2°
